AAL956 KMIA-MWCR

Flight info

Callsign AAL956
Flight time 1h 11m
Altitude 37000
Route MAYNR3 FUNDI UM335 ALVEK UM328 UCL/N0442F380 DCT LACET DCT ALONA DCT MOBIX DCT SASER
Aircraft A319/M-SDE3FGHIRWY/LB1

Departure

Time 2026-05-06 18:15
Airport Miami International Airport (KMIA)

Arrival

Time 2026-05-06 19:27
Airport Owen Roberts International Airport (MWCR)
Time Latitude Longitude Altitude Speed Heading
2026-05-06 17:41 25.79682 -80.28129 22 ft 0 kts 54°
2026-05-06 17:48 25.79682 -80.28130 22 ft 0 kts 54°
2026-05-06 18:05 25.79673 -80.28144 39 ft 4 kts 54°
2026-05-06 18:05 25.79657 -80.28167 22 ft 4 kts 46°
2026-05-06 18:05 25.79640 -80.28182 22 ft 4 kts 342°
2026-05-06 18:06 25.79638 -80.28183 25 ft 0 kts 288°
2026-05-06 18:07 25.79638 -80.28182 25 ft 0 kts 288°
2026-05-06 18:07 25.79640 -80.28192 23 ft 4 kts 288°
2026-05-06 18:08 25.79661 -80.28241 21 ft 10 kts 296°
2026-05-06 18:08 25.79673 -80.28328 20 ft 13 kts 268°
2026-05-06 18:08 25.79669 -80.28435 21 ft 14 kts 268°
2026-05-06 18:08 25.79659 -80.28539 23 ft 14 kts 258°
2026-05-06 18:09 25.79649 -80.28636 23 ft 12 kts 267°
2026-05-06 18:09 25.79641 -80.28728 23 ft 13 kts 265°
2026-05-06 18:09 25.79658 -80.28803 25 ft 11 kts 315°
2026-05-06 18:09 25.79733 -80.28814 26 ft 12 kts 357°
2026-05-06 18:10 25.79822 -80.28818 24 ft 13 kts 358°
2026-05-06 18:10 25.79918 -80.28824 28 ft 14 kts 357°
2026-05-06 18:10 25.80005 -80.28842 26 ft 12 kts 314°
2026-05-06 18:10 25.80010 -80.28947 25 ft 15 kts 266°
2026-05-06 18:11 25.80005 -80.29071 25 ft 15 kts 268°
2026-05-06 18:11 25.80000 -80.29188 26 ft 16 kts 267°
2026-05-06 18:11 25.79995 -80.29320 23 ft 19 kts 267°
2026-05-06 18:11 25.79988 -80.29478 18 ft 19 kts 267°
2026-05-06 18:12 25.79983 -80.29613 18 ft 17 kts 267°
2026-05-06 18:12 25.79977 -80.29734 19 ft 16 kts 266°
2026-05-06 18:12 25.79972 -80.29857 16 ft 17 kts 267°
2026-05-06 18:12 25.79974 -80.29948 15 ft 7 kts 283°
2026-05-06 18:13 25.79975 -80.29953 15 ft 0 kts 285°
2026-05-06 18:13 25.79977 -80.29963 15 ft 4 kts 285°
2026-05-06 18:13 25.79989 -80.30009 16 ft 9 kts 285°
2026-05-06 18:14 25.80008 -80.30082 19 ft 11 kts 287°
2026-05-06 18:14 25.80064 -80.30123 19 ft 11 kts 30°
2026-05-06 18:14 25.80075 -80.30022 16 ft 18 kts 87°
2026-05-06 18:14 25.80093 -80.29595 18 ft 93 kts 87°
2026-05-06 18:15 25.80131 -80.28645 28 ft 151 kts 88°
2026-05-06 18:15 25.80169 -80.27423 577 ft 159 kts 89°
2026-05-06 18:15 25.80122 -80.26211 1308 ft 160 kts 102°
2026-05-06 18:15 25.79641 -80.25096 1960 ft 168 kts 129°
2026-05-06 18:16 25.78740 -80.24133 2405 ft 191 kts 137°
2026-05-06 18:16 25.77690 -80.23088 2798 ft 214 kts 138°
2026-05-06 18:16 25.76521 -80.21944 3293 ft 236 kts 139°
2026-05-06 18:16 25.75220 -80.20678 3869 ft 259 kts 139°
2026-05-06 18:17 25.73731 -80.19495 4734 ft 270 kts 157°
2026-05-06 18:17 25.71873 -80.19131 5709 ft 275 kts 178°
2026-05-06 18:17 25.69952 -80.19059 6726 ft 279 kts 178°
2026-05-06 18:17 25.67988 -80.19006 7584 ft 286 kts 180°
2026-05-06 18:18 25.65979 -80.19228 8427 ft 295 kts 188°
2026-05-06 18:18 25.63927 -80.19524 9310 ft 300 kts 187°
2026-05-06 18:18 25.61864 -80.20023 10148 ft 307 kts 200°
2026-05-06 18:18 25.59866 -80.21074 10534 ft 330 kts 211°
2026-05-06 18:19 25.57823 -80.22375 11062 ft 345 kts 211°
2026-05-06 18:19 25.55723 -80.23717 11789 ft 352 kts 211°
2026-05-06 18:19 25.53587 -80.25080 12547 ft 358 kts 211°
2026-05-06 18:19 25.51409 -80.26467 13301 ft 364 kts 211°
2026-05-06 18:20 25.49189 -80.27873 14028 ft 370 kts 211°
2026-05-06 18:20 25.46938 -80.29291 14691 ft 375 kts 211°
2026-05-06 18:20 25.44654 -80.30724 15367 ft 379 kts 211°
2026-05-06 18:20 25.42348 -80.32170 16043 ft 383 kts 211°
2026-05-06 18:21 25.40019 -80.33640 16712 ft 387 kts 212°
2026-05-06 18:21 25.37665 -80.35128 17378 ft 392 kts 212°
2026-05-06 18:21 25.35285 -80.36630 18033 ft 396 kts 212°
2026-05-06 18:21 25.32911 -80.38126 18636 ft 400 kts 212°
2026-05-06 18:22 25.30483 -80.39655 19216 ft 404 kts 212°
2026-05-06 18:22 25.28033 -80.41196 19823 ft 406 kts 212°
2026-05-06 18:22 25.25571 -80.42745 20442 ft 409 kts 212°
2026-05-06 18:22 25.23010 -80.44148 21048 ft 414 kts 204°
2026-05-06 18:23 25.20245 -80.45126 21655 ft 419 kts 199°
2026-05-06 18:23 25.17440 -80.46035 22264 ft 422 kts 199°
2026-05-06 18:23 25.14618 -80.46953 22858 ft 424 kts 199°
2026-05-06 18:23 25.11777 -80.47879 23460 ft 427 kts 199°
2026-05-06 18:24 25.08916 -80.48815 23984 ft 430 kts 199°
2026-05-06 18:24 25.06036 -80.49758 24472 ft 433 kts 199°
2026-05-06 18:24 25.03138 -80.50707 24949 ft 436 kts 199°
2026-05-06 18:24 25.00222 -80.51662 25411 ft 439 kts 199°
2026-05-06 18:25 24.97287 -80.52624 25870 ft 441 kts 199°
2026-05-06 18:25 24.94335 -80.53587 26330 ft 444 kts 199°
2026-05-06 18:25 24.91364 -80.54556 26811 ft 446 kts 199°
2026-05-06 18:25 24.88383 -80.55529 27284 ft 448 kts 200°
2026-05-06 18:26 24.85494 -80.56776 27735 ft 446 kts 210°
2026-05-06 18:26 24.82847 -80.58554 28189 ft 444 kts 220°
2026-05-06 18:26 24.80542 -80.60797 28644 ft 442 kts 230°
2026-05-06 18:26 24.78627 -80.63427 29101 ft 439 kts 240°
2026-05-06 18:27 24.76982 -80.66267 29556 ft 441 kts 241°
2026-05-06 18:27 24.75333 -80.69123 30009 ft 444 kts 241°
2026-05-06 18:27 24.73672 -80.71988 30410 ft 446 kts 241°
2026-05-06 18:27 24.71995 -80.74870 30786 ft 448 kts 241°
2026-05-06 18:28 24.70307 -80.77761 31148 ft 450 kts 241°
2026-05-06 18:28 24.68610 -80.80665 31520 ft 452 kts 241°
2026-05-06 18:28 24.66909 -80.83578 31913 ft 453 kts 241°
2026-05-06 18:28 24.65211 -80.86486 32447 ft 451 kts 241°
2026-05-06 18:29 24.63524 -80.89380 33013 ft 448 kts 242°
2026-05-06 18:29 24.61848 -80.92251 33573 ft 445 kts 242°
2026-05-06 18:29 24.60145 -80.95078 34153 ft 444 kts 237°
2026-05-06 18:29 24.58070 -80.97548 34639 ft 449 kts 225°
2026-05-06 18:30 24.55513 -80.99542 35102 ft 455 kts 213°
2026-05-06 18:30 24.52544 -81.00922 35547 ft 461 kts 200°
2026-05-06 18:30 24.49416 -81.01554 35964 ft 467 kts 187°
2026-05-06 18:30 24.46155 -81.01585 36362 ft 469 kts 183°
2026-05-06 18:31 24.42897 -81.01549 36763 ft 468 kts 183°
2026-05-06 18:31 24.39646 -81.01517 37031 ft 468 kts 183°
2026-05-06 18:31 24.33185 -81.01465 37090 ft 461 kts 184°
2026-05-06 18:32 24.26774 -81.01418 37092 ft 460 kts 184°
2026-05-06 18:32 24.20377 -81.01369 37092 ft 460 kts 184°
2026-05-06 18:33 24.13979 -81.01312 37090 ft 460 kts 184°
2026-05-06 18:33 24.07583 -81.01253 37083 ft 460 kts 183°
2026-05-06 18:34 24.01183 -81.01204 37083 ft 460 kts 183°
2026-05-06 18:34 23.94775 -81.01067 37083 ft 461 kts 181°
2026-05-06 18:35 23.88366 -81.00759 37080 ft 461 kts 181°
2026-05-06 18:35 23.81953 -81.00421 37081 ft 461 kts 181°
2026-05-06 18:36 23.75540 -81.00140 37074 ft 461 kts 181°
2026-05-06 18:36 23.69126 -80.99889 37077 ft 461 kts 181°
2026-05-06 18:37 23.63796 -80.99672 37077 ft 461 kts 181°
2026-05-06 18:37 23.56294 -80.99349 37078 ft 461 kts 181°
2026-05-06 18:38 23.49881 -80.99076 37080 ft 461 kts 181°
2026-05-06 18:38 23.43469 -80.98808 37064 ft 461 kts 181°
2026-05-06 18:39 23.37054 -80.98540 37070 ft 461 kts 181°
2026-05-06 18:40 23.27429 -80.98137 37069 ft 461 kts 181°
2026-05-06 18:40 23.21054 -80.97870 37064 ft 461 kts 181°
2026-05-06 18:41 23.14635 -80.97597 37060 ft 461 kts 180°
2026-05-06 18:41 23.08222 -80.97322 37056 ft 461 kts 180°
2026-05-06 18:42 23.01843 -80.97530 37055 ft 456 kts 194°
2026-05-06 18:42 22.95852 -80.99538 37056 ft 450 kts 204°
2026-05-06 18:43 22.89982 -81.01904 37053 ft 450 kts 204°
2026-05-06 18:43 22.84104 -81.04246 37038 ft 450 kts 204°
2026-05-06 18:44 22.78224 -81.06587 37040 ft 451 kts 204°
2026-05-06 18:44 22.72334 -81.08945 37036 ft 451 kts 204°
2026-05-06 18:45 22.66446 -81.11306 37037 ft 451 kts 204°
2026-05-06 18:45 22.60556 -81.13651 37039 ft 451 kts 204°
2026-05-06 18:46 22.54659 -81.15997 37039 ft 451 kts 204°
2026-05-06 18:46 22.48765 -81.18351 37033 ft 452 kts 204°
2026-05-06 18:47 22.43865 -81.20304 37038 ft 452 kts 203°
2026-05-06 18:47 22.37965 -81.22650 37041 ft 452 kts 203°
2026-05-06 18:48 22.32064 -81.24992 37045 ft 452 kts 203°
2026-05-06 18:48 22.26163 -81.27337 37047 ft 452 kts 204°
2026-05-06 18:49 22.20266 -81.29682 37045 ft 452 kts 203°
2026-05-06 18:49 22.14372 -81.32018 37051 ft 451 kts 203°
2026-05-06 18:50 22.08475 -81.34347 37056 ft 451 kts 203°
2026-05-06 18:50 22.02579 -81.36676 37058 ft 451 kts 203°
2026-05-06 18:51 21.96692 -81.39009 37055 ft 451 kts 203°
2026-05-06 18:51 21.90840 -81.41324 37056 ft 451 kts 203°
2026-05-06 18:52 21.84949 -81.43645 37052 ft 451 kts 202°
2026-05-06 18:52 21.79051 -81.45963 37052 ft 451 kts 202°
2026-05-06 18:53 21.73156 -81.48283 37052 ft 451 kts 202°
2026-05-06 18:53 21.67265 -81.50607 37052 ft 451 kts 202°
2026-05-06 18:54 21.61362 -81.52912 37049 ft 452 kts 200°
2026-05-06 18:54 21.55180 -81.54281 37045 ft 454 kts 192°
2026-05-06 18:55 21.48955 -81.55451 37050 ft 454 kts 192°
2026-05-06 18:55 21.42728 -81.56626 37052 ft 454 kts 192°
2026-05-06 18:56 21.36507 -81.57800 37053 ft 454 kts 192°
2026-05-06 18:56 21.30282 -81.58974 37051 ft 454 kts 192°
2026-05-06 18:57 21.24057 -81.60149 37049 ft 454 kts 192°
2026-05-06 18:57 21.17836 -81.61321 37049 ft 454 kts 192°
2026-05-06 18:58 21.11606 -81.62495 36745 ft 455 kts 192°
2026-05-06 18:58 21.08488 -81.63080 36498 ft 455 kts 192°
2026-05-06 18:58 21.05368 -81.63666 36252 ft 455 kts 192°
2026-05-06 18:58 21.02290 -81.64247 36013 ft 456 kts 192°
2026-05-06 18:59 20.99123 -81.64845 35770 ft 456 kts 191°
2026-05-06 18:59 20.96035 -81.65423 35538 ft 457 kts 191°
2026-05-06 18:59 20.92904 -81.66008 35291 ft 457 kts 191°
2026-05-06 18:59 20.89740 -81.66600 34897 ft 454 kts 191°
2026-05-06 19:00 20.86667 -81.67175 34354 ft 454 kts 191°
2026-05-06 19:00 20.83556 -81.67759 33770 ft 454 kts 191°
2026-05-06 19:00 20.80453 -81.68343 33215 ft 452 kts 191°
2026-05-06 19:00 20.77366 -81.68920 32677 ft 449 kts 191°
2026-05-06 19:01 20.74295 -81.69494 32136 ft 448 kts 190°
2026-05-06 19:01 20.71233 -81.70069 31602 ft 446 kts 190°
2026-05-06 19:01 20.68189 -81.70639 31077 ft 444 kts 190°
2026-05-06 19:01 20.65145 -81.71211 30558 ft 442 kts 190°
2026-05-06 19:02 20.62120 -81.71779 30038 ft 441 kts 190°
2026-05-06 19:02 20.59108 -81.72342 29500 ft 438 kts 189°
2026-05-06 19:02 20.56123 -81.72899 29017 ft 434 kts 189°
2026-05-06 19:02 20.53159 -81.73449 28537 ft 430 kts 189°
2026-05-06 19:03 20.50215 -81.73992 28069 ft 428 kts 189°
2026-05-06 19:03 20.47293 -81.74531 27594 ft 425 kts 189°
2026-05-06 19:03 20.44382 -81.75070 27119 ft 424 kts 189°
2026-05-06 19:03 20.41478 -81.75614 26638 ft 423 kts 189°
2026-05-06 19:04 20.38580 -81.76159 26150 ft 423 kts 189°
2026-05-06 19:04 20.35680 -81.76705 25648 ft 424 kts 189°
2026-05-06 19:04 20.32776 -81.77250 25137 ft 424 kts 189°
2026-05-06 19:04 20.29863 -81.77793 24606 ft 426 kts 189°
2026-05-06 19:05 20.26940 -81.78337 24130 ft 426 kts 189°
2026-05-06 19:05 20.24029 -81.78879 23571 ft 428 kts 189°
2026-05-06 19:05 20.21112 -81.79424 23249 ft 421 kts 188°
2026-05-06 19:05 20.18235 -81.79959 22776 ft 419 kts 188°
2026-05-06 19:06 20.15374 -81.80488 22332 ft 416 kts 188°
2026-05-06 19:06 20.12542 -81.81012 21692 ft 411 kts 188°
2026-05-06 19:06 20.09739 -81.81529 21031 ft 407 kts 188°
2026-05-06 19:06 20.06960 -81.82044 20372 ft 404 kts 188°
2026-05-06 19:07 20.04208 -81.82553 19845 ft 398 kts 188°
2026-05-06 19:07 20.01498 -81.82912 19387 ft 388 kts 179°
2026-05-06 19:07 19.98891 -81.82663 18934 ft 377 kts 165°
2026-05-06 19:07 19.96397 -81.81803 18489 ft 367 kts 154°
2026-05-06 19:08 19.94061 -81.80791 17968 ft 369 kts 155°
2026-05-06 19:08 19.91681 -81.79765 17541 ft 368 kts 155°
2026-05-06 19:08 19.89309 -81.78748 17110 ft 367 kts 155°
2026-05-06 19:08 19.86941 -81.77734 16681 ft 366 kts 155°
2026-05-06 19:09 19.84580 -81.76725 16261 ft 365 kts 156°
2026-05-06 19:09 19.82228 -81.75719 15840 ft 364 kts 156°
2026-05-06 19:09 19.79892 -81.74720 15489 ft 361 kts 156°
2026-05-06 19:09 19.77569 -81.73727 15165 ft 358 kts 156°
2026-05-06 19:10 19.75254 -81.72735 14747 ft 357 kts 156°
2026-05-06 19:10 19.72966 -81.71755 14432 ft 353 kts 156°
2026-05-06 19:10 19.70694 -81.70782 14019 ft 350 kts 156°
2026-05-06 19:10 19.68439 -81.69818 13438 ft 348 kts 157°
2026-05-06 19:11 19.66214 -81.68869 12954 ft 342 kts 157°
2026-05-06 19:11 19.64015 -81.67931 12524 ft 340 kts 157°
2026-05-06 19:11 19.61827 -81.66999 12144 ft 338 kts 156°
2026-05-06 19:11 19.59649 -81.66071 11738 ft 336 kts 156°
2026-05-06 19:12 19.57491 -81.65149 11377 ft 334 kts 157°
2026-05-06 19:12 19.55361 -81.64240 11100 ft 328 kts 157°
2026-05-06 19:12 19.53255 -81.63343 10514 ft 325 kts 157°
2026-05-06 19:12 19.51173 -81.62455 10049 ft 318 kts 157°
2026-05-06 19:13 19.49147 -81.61586 9594 ft 310 kts 156°
2026-05-06 19:13 19.47176 -81.60742 9176 ft 301 kts 156°
2026-05-06 19:13 19.45264 -81.59927 8766 ft 292 kts 156°
2026-05-06 19:13 19.43406 -81.59139 8367 ft 283 kts 156°
2026-05-06 19:14 19.41601 -81.58373 7981 ft 276 kts 156°
2026-05-06 19:14 19.39843 -81.57626 7573 ft 269 kts 156°
2026-05-06 19:14 19.38125 -81.56895 7180 ft 263 kts 156°
2026-05-06 19:14 19.36440 -81.56175 6784 ft 262 kts 156°
2026-05-06 19:15 19.34734 -81.55479 6361 ft 264 kts 159°
2026-05-06 19:15 19.32961 -81.54928 5905 ft 266 kts 162°
2026-05-06 19:15 19.31158 -81.54444 5460 ft 268 kts 163°
2026-05-06 19:15 19.29344 -81.53983 5022 ft 269 kts 164°
2026-05-06 19:16 19.27543 -81.53530 4559 ft 270 kts 164°
2026-05-06 19:16 19.25829 -81.52781 4082 ft 266 kts 140°
2026-05-06 19:16 19.24808 -81.51197 3624 ft 263 kts 105°
2026-05-06 19:16 19.24838 -81.49303 3241 ft 257 kts 76°
2026-05-06 19:17 19.25450 -81.47559 2806 ft 249 kts 68°
2026-05-06 19:17 19.26147 -81.45939 2376 ft 233 kts 67°
2026-05-06 19:17 19.26808 -81.44421 1978 ft 217 kts 67°
2026-05-06 19:17 19.27420 -81.43030 1603 ft 205 kts 67°
2026-05-06 19:18 19.27949 -81.41658 1269 ft 198 kts 75°
2026-05-06 19:18 19.28286 -81.40276 915 ft 190 kts 81°
2026-05-06 19:18 19.28472 -81.38945 825 ft 170 kts 78°
2026-05-06 19:18 19.28775 -81.37782 1197 ft 160 kts 74°
2026-05-06 19:19 19.29079 -81.36688 1202 ft 152 kts 78°
2026-05-06 19:19 19.29341 -81.35647 1358 ft 141 kts 79°
2026-05-06 19:19 19.29601 -81.34649 1466 ft 140 kts 81°
2026-05-06 19:19 19.29639 -81.33646 1500 ft 135 kts 104°
2026-05-06 19:20 19.29123 -81.32852 1451 ft 137 kts 148°
2026-05-06 19:20 19.28182 -81.32763 1353 ft 145 kts 198°
2026-05-06 19:20 19.27591 -81.33604 1353 ft 153 kts 258°
2026-05-06 19:20 19.27532 -81.34795 1481 ft 173 kts 263°
2026-05-06 19:21 19.27396 -81.36068 1473 ft 176 kts 260°
2026-05-06 19:21 19.27227 -81.37355 1466 ft 176 kts 261°
2026-05-06 19:21 19.27055 -81.38661 1478 ft 181 kts 260°
2026-05-06 19:21 19.26881 -81.39980 1469 ft 180 kts 259°
2026-05-06 19:22 19.26708 -81.41288 1475 ft 180 kts 260°
2026-05-06 19:22 19.26536 -81.42594 1482 ft 178 kts 260°
2026-05-06 19:22 19.26365 -81.43903 1482 ft 180 kts 259°
2026-05-06 19:22 19.26195 -81.45209 1485 ft 178 kts 260°
2026-05-06 19:23 19.26204 -81.46510 1450 ft 179 kts 292°
2026-05-06 19:23 19.27080 -81.47385 1482 ft 180 kts 346°
2026-05-06 19:23 19.28171 -81.47207 1455 ft 152 kts 46°
2026-05-06 19:23 19.28593 -81.46286 1506 ft 136 kts 79°
2026-05-06 19:24 19.28376 -81.45342 1395 ft 135 kts 120°
2026-05-06 19:24 19.27997 -81.44439 1200 ft 134 kts 102°
2026-05-06 19:24 19.27943 -81.43486 1003 ft 126 kts 95°
2026-05-06 19:24 19.27886 -81.42586 881 ft 124 kts 93°
2026-05-06 19:25 19.27973 -81.41686 690 ft 121 kts 82°
2026-05-06 19:25 19.28128 -81.40803 689 ft 121 kts 81°
2026-05-06 19:25 19.28299 -81.39931 557 ft 121 kts 77°
2026-05-06 19:25 19.28496 -81.39027 471 ft 135 kts 78°
2026-05-06 19:26 19.28733 -81.38092 346 ft 128 kts 79°
2026-05-06 19:26 19.28943 -81.37182 125 ft 125 kts 81°
2026-05-06 19:26 19.29142 -81.36332 20 ft 107 kts 75°
2026-05-06 19:26 19.29286 -81.35732 16 ft 59 kts 76°
2026-05-06 19:27 19.29355 -81.35446 13 ft 27 kts 75°
2026-05-06 19:27 19.29400 -81.35261 17 ft 28 kts 76°
2026-05-06 19:27 19.29451 -81.35042 16 ft 31 kts 75°
2026-05-06 19:27 19.29511 -81.34875 19 ft 14 kts 23°
2026-05-06 19:28 19.29571 -81.34958 17 ft 18 kts 256°
2026-05-06 19:28 19.29535 -81.35112 15 ft 25 kts 257°
2026-05-06 19:28 19.29495 -81.35293 15 ft 27 kts 256°
2026-05-06 19:28 19.29455 -81.35447 16 ft 22 kts 255°
2026-05-06 19:29 19.29432 -81.35560 14 ft 15 kts 275°
2026-05-06 19:29 19.29470 -81.35646 15 ft 11 kts 259°
2026-05-06 19:29 19.29520 -81.35689 15 ft 8 kts 349°
2026-05-06 19:29 19.29542 -81.35693 16 ft 0 kts 349°